GFSFLT1_250_rhum_024.txt.gz
RH
86 82 81 79 77 74 67 52 43 56 63 100 100 100 100 100 100 100 100 100 100 100 100 100 100 100 92 56 41 40 46 44
86 79 75 60 40 44 49 53 52 48 55 98 98 98 100 100 100 100 100 88 99 100 100 79 39 42 44 47 47 44 51 53
53 38 45 50 50 53 33 24 25 24 46 49 38 48 59 68 69 64 71 94 83 42 42 43 47 50 49 50 50 45 43 47
54 56 46 30 20 17 19 22 25 28 31 34 35 35 35 37 39 40 41 42 39 40 45 47 45 44 42 41 45 52 54 53
22 18 21 29 35 37 40 40 39 40 44 45 45 45 46 48 50 51 51 52 52 52 51 49 46 43 48 50 48 54 58 60
32 39 39 37 38 41 44 47 47 44 43 44 46 46 46 45 44 41 39 37 37 37 37 39 42 44 46 53 55 56 62 65
42 43 45 44 41 39 38 38 37 35 33 34 35 37 39 41 40 37 35 35 35 38 42 45 51 58 60 60 61 74 72 66
50 44 39 38 38 36 35 34 33 32 35 40 43 45 43 36 34 36 41 41 45 50 57 63 60 59 70 74 64 54 48 43
41 42 42 36 35 36 39 41 42 44 49 55 54 50 44 43 43 43 42 48 58 59 56 56 66 62 60 53 50 48 37 25
39 39 37 42 46 50 56 66 72 76 84 89 83 71 65 54 46 48 54 55 54 57 63 68 62 65 64 57 55 34 19 16
39 37 42 61 69 68 69 73 69 65 79 83 77 68 60 52 50 48 51 54 58 72 74 77 83 72 62 47 34 22 16 12
38 40 48 55 59 69 74 77 77 77 85 83 78 69 54 44 46 54 54 64 74 72 77 77 64 48 40 29 18 15 12 10
40 46 54 55 61 84 95 99 88 81 80 70 61 53 46 48 56 60 67 73 75 82 74 50 33 26 21 16 15 12 10 9
43 48 52 66 81 97 100 100 93 82 73 65 53 47 49 58 64 72 81 85 79 83 66 45 28 21 17 15 12 10 9 6
41 49 57 69 86 88 100 93 84 72 65 57 54 55 64 73 81 90 87 82 84 86 66 38 32 23 16 13 10 9 7 5
50 62 66 75 82 91 90 87 82 69 66 67 65 72 76 80 89 92 83 88 91 71 48 34 24 18 13 10 9 8 6 5
55 58 66 70 91 95 93 86 71 74 80 76 74 77 84 84 93 88 92 82 71 53 36 22 17 13 11 9 8 6 5 5
69 57 60 68 97 99 86 79 85 85 76 76 75 79 80 92 94 97 95 72 60 42 30 19 14 12 9 9 8 6 5 5
70 59 64 79 100 96 88 88 83 77 74 72 74 85 92 92 100 97 76 57 42 29 20 16 12 10 8 8 7 5 5 6

GFSFLT1_250_rhum_030.txt.gz
RH
82 100 90 100 100 100 100 98 89 93 96 96 89 87 100 88 79 62 57 59 90 100 99 74 88 64 90 82 63 42 41 37
87 98 100 100 83 100 100 81 77 94 92 100 90 87 67 52 49 46 27 26 32 36 37 39 39 37 37 32 29 28 30 32
100 100 83 100 91 96 95 82 63 64 59 49 44 42 37 32 31 34 36 36 32 27 27 27 26 26 26 27 29 33 40 46
100 100 96 90 72 60 45 37 42 46 43 36 35 31 26 25 26 28 30 32 33 32 33 39 44 49 51 51 50 52 52 54
74 76 42 26 42 51 40 25 28 31 29 26 24 26 26 29 32 35 38 39 41 50 57 66 64 61 56 57 59 52 47 53
16 42 51 42 24 31 33 29 27 25 26 34 37 40 40 38 42 53 61 68 70 65 64 62 60 59 58 56 52 51 57 55
44 26 30 39 35 30 28 30 37 45 41 37 36 36 36 39 49 53 58 62 59 63 66 55 48 49 49 49 54 53 51 49
31 42 39 33 30 30 33 34 37 34 36 35 36 41 38 44 51 67 76 70 74 72 67 61 63 58 54 53 54 50 50 53
40 38 34 34 36 39 41 36 37 39 36 33 36 41 46 51 55 64 74 78 69 68 61 62 58 57 57 56 61 63 54 44
39 35 35 37 39 43 44 40 40 42 36 35 38 45 52 56 59 68 83 81 80 66 65 67 68 72 66 63 57 50 49 54
43 41 41 41 47 54 49 43 39 41 40 38 42 41 55 61 66 78 88 87 83 72 71 73 85 81 68 71 66 64 61 52
52 54 53 49 48 52 62 63 45 48 58 54 50 56 59 65 78 93 92 86 76 71 80 91 77 69 68 71 71 61 48 38
65 62 61 67 71 65 68 75 65 81 78 69 74 61 66 81 86 70 72 68 71 82 92 79 67 76 80 70 60 49 39 29
55 54 61 62 63 61 66 89 82 81 85 81 59 65 83 78 67 68 68 74 83 89 83 72 83 77 69 55 48 41 30 22
56 56 58 63 63 60 58 60 62 68 59 60 70 75 68 71 65 68 72 74 71 75 78 87 82 67 60 50 39 32 32 20
69 70 64 57 55 54 51 56 53 58 59 71 66 63 74 72 70 71 79 72 67 82 82 83 77 56 53 37 33 23 18 15
68 78 75 66 57 49 50 49 54 60 73 68 62 70 76 75 76 79 66 71 79 73 69 63 63 62 48 40 39 29 15 11
77 75 67 57 51 48 48 51 58 71 68 61 61 77 84 84 77 69 67 78 72 62 58 61 49 40 35 31 22 16 11 10
65 57 57 65 60 50 51 55 68 68 62 65 82 92 92 79 71 72 67 66 64 53 48 44 46 48 34 14 12 12 10 9

GFSFLT1_250_rhum_033.txt.gz
RH
100 100 89 78 82 98 100 100 100 100 100 100 100 100 100 100 99 87 81 87 86 76 72 54 38 25 26 28 28 30 34 36
97 100 100 95 92 98 100 100 100 100 100 100 97 98 89 89 80 78 74 68 58 40 28 24 25 25 30 34 34 36 47 49
72 79 100 100 100 100 88 83 86 88 94 93 93 81 68 59 54 45 38 28 25 24 25 31 35 37 39 43 47 50 48 46
90 97 100 100 100 100 97 98 87 68 70 68 65 56 41 34 28 24 22 25 27 30 37 43 47 49 53 58 60 59 55 53
87 72 81 84 96 90 86 76 66 46 36 38 34 29 27 24 25 26 28 28 37 40 43 47 55 63 61 53 52 54 58 56
76 74 60 52 36 32 47 46 39 32 30 30 27 26 27 29 28 27 30 35 39 47 51 52 55 58 62 69 66 65 63 60
97 70 52 49 43 35 32 32 33 31 28 28 29 30 27 26 27 30 30 32 39 45 50 56 63 67 69 65 59 56 50 46
94 77 42 34 36 39 38 32 28 29 28 29 30 29 28 27 26 27 30 35 40 48 57 60 56 53 58 57 55 56 59 58
56 24 38 45 44 38 33 34 34 35 38 33 34 33 31 30 28 32 40 58 55 56 60 58 57 58 58 60 66 64 62 59
34 49 50 45 40 37 37 37 39 43 47 48 52 48 44 38 44 55 68 59 59 58 57 67 67 64 69 72 72 65 58 59
45 49 50 50 46 44 45 48 54 62 66 67 63 50 50 60 63 66 59 64 61 52 61 72 72 73 79 74 65 58 62 69
49 42 42 44 46 47 46 48 56 61 63 59 56 53 59 58 56 56 60 66 59 56 71 80 79 81 73 68 62 64 65 56
50 48 47 50 49 51 54 51 50 57 70 64 56 50 50 48 53 65 67 61 58 65 80 90 89 78 73 59 60 64 52 46
50 50 49 51 56 62 63 66 70 80 72 56 49 45 47 51 59 67 64 59 66 77 87 84 76 69 62 65 63 50 40 35
48 44 44 48 57 68 86 92 80 65 56 50 46 48 49 56 69 67 60 68 79 83 76 70 64 62 66 58 44 37 31 26
50 51 63 65 66 66 56 46 46 46 48 47 48 55 62 68 69 65 68 75 79 69 65 60 58 69 65 40 35 33 30 26
62 67 59 65 71 64 61 54 48 48 50 53 65 62 65 72 68 70 76 76 71 68 59 65 60 38 29 29 30 30 25 18
80 78 74 73 71 65 66 57 54 52 51 62 66 72 75 70 74 80 79 73 65 59 64 50 37 36 40 31 23 18 14 11
74 73 78 80 70 76 77 64 58 53 60 68 74 71 70 75 80 76 71 66 60 59 48 40 38 34 24 21 19 14 12 9

GFSFLT1_250_rhum_039.txt.gz
RH
100 100 100 96 100 100 100 100 100 100 100 100 100 100 100 100 100 100 100 100 100 98 90 94 91 82 73 72 56 40 32 29
100 100 100 100 100 100 100 100 100 100 100 100 100 100 100 100 100 100 100 99 85 82 84 79 64 54 47 37 32 30 28 27
100 100 100 100 100 100 100 100 100 100 100 100 90 86 100 100 96 100 98 85 76 64 50 43 39 35 31 29 28 25 26 28
99 98 94 100 100 100 100 100 100 100 98 98 93 99 95 85 87 86 76 60 47 38 35 32 30 29 28 29 31 30 28 26
98 93 92 91 96 91 100 100 100 87 82 72 72 71 65 68 65 57 46 39 34 33 32 30 29 29 31 28 29 27 26 30
100 89 72 73 71 68 70 70 68 67 67 66 66 61 58 53 53 37 36 35 32 31 31 32 32 32 34 36 36 37 42 46
88 96 90 92 69 62 61 49 41 49 82 93 84 94 81 41 40 38 34 34 38 36 33 36 39 39 40 43 48 47 47 45
49 54 57 67 64 72 93 85 98 100 100 96 96 73 41 37 36 37 41 41 39 42 44 41 43 46 47 46 45 44 45 50
60 64 46 58 86 97 100 100 100 100 100 86 48 42 40 40 40 38 41 45 44 46 44 43 46 48 50 50 51 50 56 56
22 12 16 70 100 100 100 100 99 93 58 45 44 44 44 37 39 45 54 50 46 43 43 46 52 53 54 53 53 55 60 72
49 51 59 59 71 81 78 84 62 47 46 48 45 39 40 44 48 56 57 53 54 54 60 58 56 57 60 59 63 72 79 77
46 48 38 39 44 49 55 50 47 48 47 43 44 43 41 46 47 55 66 64 69 66 62 56 57 60 62 68 77 86 81 75
48 54 62 59 60 57 49 50 48 47 54 34 34 40 46 51 60 65 63 64 60 54 54 56 63 68 69 79 87 79 84 84
61 69 63 58 59 49 46 48 45 44 45 55 63 67 63 63 59 62 61 60 61 61 59 62 75 75 76 77 78 75 75 67
59 61 68 82 78 76 85 79 91 96 91 84 70 62 61 60 64 66 66 67 64 61 65 83 79 72 72 72 76 83 69 52
77 73 84 88 75 75 89 100 100 91 75 67 61 61 62 61 59 63 67 71 71 71 86 87 74 74 77 72 76 72 61 41
70 72 72 75 89 90 86 86 76 70 63 56 56 64 60 52 55 65 73 80 74 85 84 72 68 71 69 86 90 80 49 32
70 77 80 80 75 69 68 63 65 66 58 59 57 54 56 59 67 76 82 77 80 76 68 72 82 92 99 97 87 59 40 32
75 76 73 68 64 65 68 70 63 53 56 57 59 65 69 72 79 84 76 72 80 86 88 90 99 100 98 86 68 58 36 22